Regional Weather Roundup
Issued by NWS

Home | Current Version | Previous Version | Graphics & Text | Print | Product List | Glossary On
Versions: 1 2 3 4 5 6 7 8 9 10 11 12 13 14 15 16 17 18 19 20 21 22 23 24 25 26 27 28 29 30 31 32 33 34 35 36 37 38 39 40 41 42 43 44 45 46 47 48 49 50
000
ASUS43 KMKX 221100
RWRWI

WISCONSIN REGIONAL WEATHER ROUNDUP
NATIONAL WEATHER SERVICE MILWAUKEE/SULLIVAN WI
500 AM CST SAT NOV 22 2014

NOTE: "FAIR" INDICATES FEW OR NO CLOUDS BELOW 12,000 FEET WITH NO
SIGNIFICANT WEATHER AND/OR OBSTRUCTIONS TO VISIBILITY.

WIZ001-002-006>008-014>016-023>028-221200-
NORTHWEST WISCONSIN

CITY           SKY/WX    TMP DP  RH WIND       PRES   REMARKS
SUPERIOR ARPT  CLEAR     30  27  86 SW9       29.72S WCI  22
ASHLAND        CLOUDY    34  28  79 SW12G21   29.73F WCI  25
HAYWARD        CLOUDY    34  30  85 S15       29.76F WCI  24
SIREN          MOCLDY    35  31  87 SW9       29.77F WCI  27
CUMBERLAND     CLOUDY    32  32 100 SW12      29.78F FOG     WCI  23
RICE LAKE      CLOUDY    34  32  92 S10       29.81F FOG     WCI  26
CHETEK         CLOUDY    33  32  94 S6        29.80F FOG     WCI  28
LADYSMITH      CLOUDY    32  30  92 S10       29.82F FOG     WCI  24
EAU CLAIRE     NOT AVBL
MENOMONIE      CLOUDY    35  32  89 S8        29.83F FOG     WCI  28
NEW RICHMOND   CLOUDY    35  34  96 S13       29.79F FOG     WCI  26
OSCEOLA        CLOUDY    35  35  98 S8        29.82S FOG     WCI  29
$$

WIZ003>005-009-010-017-018-221200-
NORTH CENTRAL WISCONSIN

CITY           SKY/WX    TMP DP  RH WIND       PRES   REMARKS
MANITOWISH WTR CLOUDY    30  28  95 SW14G21   29.76F FOG     WCI  19
ARBOR VITAE    CLOUDY    32  29  90 SW9G16    29.77S FOG     WCI  24
WOODRUFF       CLOUDY    32  29  90 SW9G16    29.77S FOG     WCI  24
RHINELANDER    CLOUDY    29  26  89 SW13      29.79F FOG     WCI  19
EAGLE RIVER    CLOUDY    29  25  84 SW14      29.77S FOG     WCI  18
LAND O LAKES   CLOUDY    30  27  88 SW10G18   29.76S WCI  21
PHILLIPS       CLOUDY    30  28  94 SW12      29.79S FOG     WCI  20
TOMAHAWK       CLOUDY    30  27  88 CALM      29.81F FOG
MEDFORD        CLOUDY    30  28  90 SW12      29.82F FOG     WCI  21
MERRILL        CLOUDY    31  28  88 SW9G16    29.83F WCI  23
$$

WIZ029-030-035-036-043>047-221200-
CENTRAL WISCONSIN

CITY           SKY/WX    TMP DP  RH WIND       PRES   REMARKS
WAUSAU         CLOUDY    31  26  82 SW12      29.84F WCI  22
MOSINEE        CLOUDY    32  28  86 SW13      29.87S WCI  22
MARSHFIELD     CLOUDY    32  27  81 SW12      29.85F WCI  23
STEVENS POINT  CLOUDY    30  25  82 SW10      29.88F WCI  21
WAUPACA        CLOUDY    35  28  77 SW9       29.91F WCI  27
WAUTOMA        NOT AVBL
WISC RAPIDS    CLOUDY    32  26  78 S12       29.90S WCI  23
CAMP DOUGLAS   CLOUDY    32  32 100 SW6       29.90F WCI  26
$$

WIZ011>013-019>022-031-037>040-048>050-221200-
NORTHEAST WISCONSIN

CITY           SKY/WX    TMP DP  RH WIND       PRES   REMARKS
ANTIGO         CLOUDY    29  26  89 SW12      29.83F WCI  19
SHAWANO        CLOUDY    34  25  69 SW8       29.88F WCI  28
OCONTO         CLOUDY    32  23  68 SW12      29.88F WCI  23
STURGEON BAY   CLOUDY    34  23  64 SW14G20   29.89F WCI  24
GREEN BAY      CLOUDY    33  27  78 SW14      29.90F WCI  23
MANITOWOC      NOT AVBL
APPLETON       NOT AVBL
CLINTONVILLE   CLOUDY    32  27  80 SW10      29.89F WCI  24
OSHKOSH        CLOUDY    32  27  81 SW14      29.92F WCI  22
$$

WIZ032>034-041-042-053>061-221200-
SOUTHWEST WISCONSIN

CITY           SKY/WX    TMP DP  RH WIND       PRES   REMARKS
LA CROSSE      CLOUDY    35  31  85 S10       29.90F FOG     WCI  27
SPARTA         CLOUDY    33  30  89 S8        29.90F WCI  26
VIROQUA        CLOUDY    32  32 100 SW13      29.91F WCI  22
BOSCOBEL       CLOUDY    35  31  85 S9        29.96F FOG     WCI  28
PRAIRIE DU CHI CLOUDY    35  32  88 S6        29.96F FOG     WCI  30
PLATTEVILLE    CLOUDY    33  32  96 S10       29.98F VSB 3/4 WCI  25
$$

WIZ056-057-062-063-064-067-068-221200-
SOUTH CENTRAL WISCONSIN

CITY           SKY/WX    TMP DP  RH WIND       PRES   REMARKS
REEDSBURG      CLOUDY    31  30  96 SW10      29.93F FOG     WCI  22
BARABOO/DELLS  CLOUDY    32  30  94 SW9       29.93F FOG     WCI  24
LONE ROCK      NOT AVBL
MINERAL POINT  FOG       32  32 100 S9        29.96F VSB 1/2 WCI  24
MADISON        CLOUDY    33  30  88 SW10      29.98F FOG     WCI  25
MIDDLETON      CLOUDY    34  32  92 SW12      29.97F WCI  25
WATERTOWN      CLOUDY    32  32 100 SW7       29.98S WCI  25
MONROE         FOG       32  32 100 SW17G24   29.98S VSB 3/4 WCI  21
JANESVILLE     CLOUDY    34  32  93 SW9       30.01F FOG     WCI  26
$$

WIZ051-052-058>065-066-070>072-221200-
SOUTHEAST WISCONSIN

CITY           SKY/WX    TMP DP  RH WIND       PRES   REMARKS
MILWAUKEE      FRZ DRZL  33  29  85 SW14      29.99F WCI  23
WAUKESHA       CLOUDY    32  30  93 SW10      29.99F WCI  24
MILWAUKEE/TIMM MIX PCPN  32  30  93 SW13G21   29.99F WCI  22
RACINE         FRZ RAIN  33  30  88 SW15G21   30.02F WCI  23
BURLINGTON     MIX PCPN  32  31  97 SW12      30.00F WCI  23
KENOSHA        LGT RAIN  34  32  92 SW13      30.01F FOG     WCI  25
FOND DU LAC    CLOUDY    32  27  81 SW15G23   29.93F WCI  22
SHEBOYGAN      CLOUDY    34  27  75 SW17      29.95F WCI  23
WEST BEND      CLOUDY    32  30  93 SW12G17   29.97F WCI  23
JUNEAU         CLOUDY    31  29  92 S13       29.97F WCI  21
$$

LSZ147-162-221200-
LAKE SUPERIOR

STATION/POSITION TIME  TEMP    WIND        PRES    WAVE
                       AIR SEA DIR/SP/G            HT/PER
                 (UTC) (F)     (DEG/KT/KT) (MB)    (FT/S)
DEVILS ISLAND    1000   35     230/ 23/ 27 1006.4F
PORT WING        1040   34     200/  8/ 11 1006.4F
SAXON HARBOR     1020   34     200/  5/ 23 1007.1S
$$

LMZ867-665-643>646-221200-
LAKE MICHIGAN

STATION/POSITION TIME  TEMP    WIND        PRES    WAVE
                       AIR SEA DIR/SP/G            HT/PER
                 (UTC) (F)     (DEG/KT/KT) (MB)    (FT/S)
CHAMBERS ISLAND  1000   34     190/ 15/ 22 1011.9F
N MID LAKE BUOY  0950   38 42  230/ 27/ 35 1012.4F  14/ 9
NORTHPORT PIER   1016   34     190/  7/ 18 1011.9F
SISTER BAY       1043          230/ 17/ 20   N/A
ALGOMA LAKESHORE 1013          240/ 17/ 21   N/A
KEWAUNEE LAKESHO 1000   34     220/ 10/ 18 1012.9F
SHEBOYGAN LAKESH 1000   35 36  220/ 12/ 15 1015.8F
PORT WASHINGTON  1000   33     240/  7/ 11 1016.3F
ATWATER BUOY     1000   34      50/  4/  8 1017.9F
MILWAUKEE LAKESH 1000   33     230/ 16/ 19   N/A
S MID LAKE BUOY  0950   38 43  210/ 23/ 29 1018.3F   7/ 6
KENOSHA   LAKESH 1000   34     210/ 12/ 17 1016.9F
$$

TC  - TEMPERATURE IN CELSIUS
VSB - VISIBILITY IN STATUTE MILES
WCI - WIND CHILL INDEX
HX  - HEAT INDEX




USA.gov is the U.S. government's official web portal to all federal, state and local government web resources and services.